Hourly Data Report for July 06, 2017

TORONTO CITY
ONTARIO

43°40'00.000" N
79°24'00.000" W
112.50 m
6158355
71508
XTO

Download Data

Hourly Data (July 2017)
Hourly Data Report for July 6, 2017
TIME
LST
Temp Definition
°C
Dew Point Definition
°C
Rel Hum Definition
%
Precip. Amount Definition
mm

Wind Dir Definition
10's deg

Wind Spd Definition
km/h
Visibility Definition
km
Stn Press Definition
kPa
Hmdx Definition


Wind Chill Definition


Weather Definition


00:00 19.4 11.2 59 0.0 LegendMM LegendMM   100.43     LegendNANA
01:00 18.8 11.7 63 0.0 LegendMM LegendMM   100.39     LegendNANA
02:00 18.3 11.6 65 0.0 LegendMM LegendMM   100.34     LegendNANA
03:00 17.6 11.9 69 0.0 LegendMM LegendMM   100.32     LegendNANA
04:00 17.3 11.4 68 0.0 LegendMM LegendMM   100.31     LegendNANA
05:00 17.0 11.5 70 0.0 LegendMM LegendMM   100.28     LegendNANA
06:00 18.8 11.6 63 0.0 LegendMM LegendMM   100.28     LegendNANA
07:00 21.3 12.3 56 0.0 LegendMM LegendMM   100.31     LegendNANA
08:00 23.9 13.8 53 0.0 LegendMM LegendMM   100.31 27   LegendNANA
09:00 24.4 14.5 54 0.0 LegendMM LegendMM   100.29 28   LegendNANA
10:00 24.1 14.8 56 0.0 LegendMM LegendMM   100.25 28   LegendNANA
11:00 25.1 14.5 52 0.0 LegendMM LegendMM   100.22 29   LegendNANA
12:00 27.7 16.3 50 0.0 LegendMM LegendMM   100.14 33   LegendNANA
13:00 27.6 16.4 51 0.0 LegendMM LegendMM   100.09 32   LegendNANA
14:00 27.2 14.0 44 0.0 LegendMM LegendMM   100.05 31   LegendNANA
15:00 29.1 14.2 40 0.0 LegendMM LegendMM   99.98 33   LegendNANA
16:00 29.2 13.2 37 0.0 LegendMM LegendMM   99.84 32   LegendNANA
17:00 28.1 15.9 48 0.0 LegendMM LegendMM   99.83 33   LegendNANA
18:00 27.1 15.0 48 0.0 LegendMM LegendMM   99.84 31   LegendNANA
19:00 26.6 9.9 35 0.0 LegendMM LegendMM   99.82 28   LegendNANA
20:00 25.3 10.4 39 0.0 LegendMM LegendMM   99.77 27   LegendNANA
21:00 24.1 11.0 44 0.0 LegendMM LegendMM   99.75 26   LegendNANA
22:00 23.2 12.4 51 0.0 LegendMM LegendMM   99.75 26   LegendNANA
23:00 22.6 14.0 58 0.0 LegendMM LegendMM   99.71 26   LegendNANA

Notes on Data Quality.

Legend

  • E = Estimated
  • M = Missing
  • NA = Not Available*
  • [empty] = Indicates an unobserved value
Date modified: